IRIDE-MS2-HEO-14

导读

IRIDE-MS2-HEO-14(NORAD编号68986)是意大利IRIDE星座系统中的一颗“鹰”(Hawk for Earth Observation,HEO)地球观测微卫星,由意大利Argotec公司建造,于2026年5月随SpaceX猎鹰9号拼车任务发射入轨。 IRIDE星座由意大利政府主导,总投入超10亿欧元,获欧洲航天局支持,聚焦灾害韧性与地球观测任务。该卫星是IRIDE星座中HEO系列卫星之一,入轨后使得IRIDE星座HEO卫星总数达到15颗,全星座在轨卫星达到31颗,将为意大利及欧洲提供地球观测数据支撑,助力灾害监测与应急响应。

Basic Information
目录编号:
68986
目录名称:
IRIDE-MS2-HEO-14
国际标识:
2026-100G
轨道中心:
EARTH
卫星名称:
IRIDE-MS2-HEO-14
卫星全名:
IRIDE-MS2-HEO-14
卫星状态:
在轨 (已飞行124 天)
发射日期:
2026-05-03 UTC
国别 :
意大利 (IT)
星等 :
--
Orbit Information
数据来源 国际轨道数据
星历时间: 2026-09-02T13:05:45+0800
2天前
查看轨道信息
半长轴: 6970.995km
偏心率: 0.0002201
轨道倾角: 97.725°
近地点辐角 173.616°
升交点赤经 141.188°
平近点角 186.508°
近地点: 591.323km
远地点: 594.393km
周期: 96.539分钟
每日圈数: 14.916284
Detailed Information
使用方式:
暂无
2D Orbit Map
3D Orbit Map
Orbit Altitude Analysis Chart
Orbit Inclination Analysis Chart
Orbit Comprehensive Analysis Chart
View Comprehensive Chart
Conjunction Data List
Event ID Objects TCA Miss Dist (km) Collision Risk Probability Collision Risk Index (CRI) Action
CDM_260905-163006-458506-898621
2026-09-05T
16:30:29+0000
0.363 km
远距离
3.736756E-4 高风险 0.86
CDM_260907-143803-926506-898621
CASSIOPE (39265)
2026-09-07T
14:38:39+0000
1.650 km
极远距离
5.003277E-6 低风险 0.49
CDM_260905-203106-458506-898621
2026-09-05T
20:31:58+0000
1.824 km
极远距离
3.569638E-6 低风险 0.46
CDM_260905-185506-458506-898621
2026-09-05T
18:55:22+0000
2.651 km
极远距离
1.551251E-6 低风险 0.39
CDM_260905-111006-270106-898622
2026-09-05T
11:10:09+0000
2.717 km
极远距离
1.542001E-6 低风险 0.39